Weather History for KLOU - May, 2013

Change the Weather History Date:

Friday, May 24, 2013

  Actual Average Record
Temperature  
Mean Temperature 60 °F 69 °F  
Max Temperature 69 °F 79 °F 91 °F (1953)
Min Temperature 50 °F 59 °F 41 °F (1961)
Degree Days  
Heating Degree Days 5 1  
Month to date heating degree days 59 67  
Since 1 July heating degree days 4322 4258  
Cooling Degree Days 0 5  
Month to date cooling degree days 89 73  
Year to date cooling degree days 126 107  
Growing Degree Days 9 (Base 50)    
Moisture  
Dew Point 44 °F    
Average Humidity 59    
Maximum Humidity 86    
Minimum Humidity 32    
Precipitation  
Precipitation 0.00 in 0.15 in 1.61 in (1955)
Month to date precipitation 3.48 4.08  
Year to date precipitation 18.07 18.88  
Sea Level Pressure  
Sea Level Pressure 30.25 in    
Wind  
Wind Speed 6 mph (NNW)    
Max Wind Speed 16 mph    
Max Gust Speed 20 mph    
Visibility 10 miles    
Events      
T = Trace of Precipitation, MM = Missing Value Source: NWS Daily Summary

Daily Weather History Graph

Daily Weather History Graph

Search for Another Location

Airport or City:

Trip Planner

Search our weather history database for the weather conditions in past years. The results will help you decide how hot, cold, wet, or windy it might be!

Date:

Astronomy

May. 24, 2013 Rise Set
Actual Time 6:24 AM EDT 8:54 PM EDT
Civil Twilight 5:54 AM EDT 9:25 PM EDT
Nautical Twilight 5:16 AM EDT 10:02 PM EDT
Astronomical Twilight 4:35 AM EDT 10:44 PM EDT
Moon 8:36 PM EDT (5/24) 5:55 AM EDT (5/24)
Length of Visible Light 15h 30m
Length of Day
14h 29m
Full, 100% of the Moon is Illuminated
May 24
Full
May 25
Full
May 31
Last Quarter
Jun 8
New
Jun 16
First Quarter

Hourly Weather History & Observations

Time (EDT) Temp. Dew Point Humidity Pressure Visibility Wind Dir Wind Speed Gust Speed Precip Events Conditions
12:53 AM 55.0 °F 46.9 °F 74% 30.13 in 10.0 mi NNW 10.4 mph 19.6 mph N/A   Overcast
1:53 AM 55.0 °F 46.9 °F 74% 30.14 in 10.0 mi NNW 10.4 mph - N/A   Overcast
2:12 AM 53.6 °F 46.4 °F 77% 30.15 in 10.0 mi NNW 11.5 mph - N/A   Overcast
2:43 AM 53.6 °F 46.4 °F 77% 30.16 in 10.0 mi NNW 9.2 mph - N/A   Mostly Cloudy
2:53 AM 53.1 °F 46.9 °F 80% 30.17 in 10.0 mi North 10.4 mph - N/A   Scattered Clouds
3:04 AM 53.6 °F 46.4 °F 77% 30.17 in 10.0 mi NNW 9.2 mph - N/A   Mostly Cloudy
3:12 AM 53.6 °F 46.4 °F 77% 30.17 in 10.0 mi NNW 10.4 mph - N/A   Mostly Cloudy
3:25 AM 53.6 °F 46.4 °F 77% 30.18 in 10.0 mi NNW 10.4 mph - N/A   Overcast
3:53 AM 53.1 °F 46.9 °F 80% 30.18 in 10.0 mi NNW 9.2 mph 17.3 mph N/A   Overcast
4:18 AM 53.6 °F 46.4 °F 77% 30.19 in 10.0 mi North 9.2 mph - N/A   Mostly Cloudy
4:53 AM 53.1 °F 46.0 °F 77% 30.20 in 10.0 mi NNW 6.9 mph - N/A   Mostly Cloudy
5:01 AM 53.6 °F 46.4 °F 77% 30.20 in 10.0 mi NNW 6.9 mph - N/A   Mostly Cloudy
5:09 AM 53.6 °F 46.4 °F 77% 30.20 in 10.0 mi NNW 8.1 mph - N/A   Scattered Clouds
5:53 AM 51.1 °F 46.0 °F 83% 30.22 in 10.0 mi NNW 4.6 mph - N/A   Clear
6:22 AM 51.8 °F 46.4 °F 82% 30.23 in 10.0 mi NNW 6.9 mph - N/A   Mostly Cloudy
6:53 AM 50.0 °F 46.0 °F 86% 30.24 in 10.0 mi NNW 5.8 mph - N/A   Partly Cloudy
7:53 AM 51.1 °F 46.0 °F 83% 30.26 in 10.0 mi North 8.1 mph - N/A   Clear
8:53 AM 53.1 °F 46.0 °F 77% 30.29 in 10.0 mi North 8.1 mph - N/A   Partly Cloudy
9:13 AM 53.6 °F 46.4 °F 77% 30.31 in 10.0 mi North 8.1 mph - N/A   Mostly Cloudy
9:53 AM 54.0 °F 46.0 °F 75% 30.32 in 10.0 mi NNW 8.1 mph - N/A   Overcast
10:53 AM 57.0 °F 46.0 °F 67% 30.34 in 10.0 mi North 6.9 mph - N/A   Mostly Cloudy
11:21 AM 57.2 °F 46.4 °F 67% 30.34 in 10.0 mi NNW 9.2 mph - N/A   Scattered Clouds
11:53 AM 59.0 °F 44.1 °F 58% 30.34 in 10.0 mi NNW 5.8 mph - N/A   Scattered Clouds
12:53 PM 63.0 °F 44.1 °F 50% 30.34 in 10.0 mi North 9.2 mph - N/A   Scattered Clouds
1:53 PM 64.0 °F 41.0 °F 43% 30.33 in 10.0 mi NNE 10.4 mph 18.4 mph N/A   Clear
2:53 PM 64.9 °F 42.1 °F 43% 30.32 in 10.0 mi NNE 8.1 mph 18.4 mph N/A   Clear
3:53 PM 66.0 °F 42.1 °F 42% 30.32 in 10.0 mi North 8.1 mph - N/A   Clear
4:53 PM 68.0 °F 37.9 °F 33% 30.32 in 10.0 mi NW 9.2 mph 16.1 mph N/A   Clear
5:53 PM 66.9 °F 36.0 °F 32% 30.31 in 10.0 mi NNE 4.6 mph 16.1 mph N/A   Clear
6:53 PM 66.9 °F 37.9 °F 34% 30.29 in 10.0 mi Variable 3.5 mph - N/A   Clear
7:53 PM 66.0 °F 39.0 °F 37% 30.28 in 10.0 mi North 6.9 mph - N/A   Clear
8:53 PM 63.0 °F 39.0 °F 41% 30.28 in 10.0 mi Calm Calm - N/A   Clear
9:53 PM 59.0 °F 42.1 °F 53% 30.29 in 10.0 mi Calm Calm - N/A   Clear
10:53 PM 55.9 °F 44.1 °F 64% 30.32 in 10.0 mi Calm Calm - N/A   Clear
11:53 PM 55.0 °F 44.1 °F 67% 30.32 in 10.0 mi Calm Calm - N/A   Clear